(204200) = 2004 BY147

Discovered at Palomar on 2004-01-16 by NEAT.

Orbit

Orbit type: Main Belt

Note: WebGL enabled browser required.

epoch2023-09-13.0
epoch JD2460200.5
perihelion date2018-08-09.66050
perihelion JD2458340.16050
argument of perihelion (°)304.56476
ascending node (°)114.23490
inclination (°)9.76416
eccentricity0.0776080
perihelion distance (AU)2.7465622
Tisserand w.r.t. Jupiter3.2
ΔV w.r.t. Earth (km/sec)10.8
semimajor axis (AU)2.9776517
mean anomaly (°)356.84960
mean daily motion (°/day)0.19181960
aphelion distance (AU)3.209
period (years)5.14
P-vector [x]0.50715440
P-vector [y]0.83583863
P-vector [z]0.21016231
Q-vector [x]-0.84786719
Q-vector [y]0.44010742
Q-vector [z]0.29568004
absolute magnitude15.91
phase slope0.15
uncertainty0
referenceMPEC 2024-A141
observations used321
oppositions14
arc length (days)7798
first opposition used2002
last opposition used2024
residual rms (arc-secs)0.70
perturbers coarse indicatorM-v
perturbers precise indicator003Ek
first observation date used2002-09-05.0
last observation date used2024-01-11.0
computer nameMPCLINUX
JD of orbit computation2456670.984422
perihelion JD uncertainty (days)3.8740E-04
argument of perihelion uncertainty (°)8.6888E-05
ascending node uncertainty (°)2.9936E-05
inclination uncertainty (°)5.4181E-06
eccentricity uncertainty 4.2804E-08
perihelion distance uncertainty (AU)1.2920E-07
Minimum Orbit Intersection Distances (in AU)
for orbit epoch: 2460200.5, reference: E2024-AE1
Mercury2.43824
Venus2.03197
Earth1.77282
Mars1.20769
Jupiter2.04437
Saturn6.2576
Uranus15.4201
Neptune27.0668

Observations

328 total observations over interval: 2002 09 05.408050 – 2024 01 11.224405
These data are available for download (format description).

Date (UT) J2000 RA J2000 Dec Magn Location Ref
2002 09 05.408050 02 16 01.367 -00 24 03.08 20.62 V 645 – Apache Point-Sloan Digital Sky Survey MPS 138364
2002 09 05.411522 02 16 01.356 -00 24 04.05 21.56   645 – Apache Point-Sloan Digital Sky Survey MPS 138364
2002 10 15.42527 01 57 53.44 -04 03 34.6 19.8   644 – Palomar Mountain/NEAT MPS 138364
2002 10 15.45136 01 57 52.21 -04 03 42.5 20.0   644 – Palomar Mountain/NEAT MPS 138364
2002 10 15.47205 01 57 51.22 -04 03 48.6 20.0   644 – Palomar Mountain/NEAT MPS 138364
2002 11 04.22825 01 42 31.05 -05 11 15.2 20.4 V 291 – LPL/Spacewatch II MPS 138364
2002 11 04.23254 01 42 30.89 -05 11 15.3 20.5 V 291 – LPL/Spacewatch II MPS 138364
2002 11 04.23677 01 42 30.68 -05 11 15.6 20.6 V 291 – LPL/Spacewatch II MPS 138364
2003 12 27.35052 08 59 57.62 +18 26 33.5 20.0   704 – Lincoln Laboratory ETS, New Mexico MPS 138364
2003 12 27.37851 08 59 56.92 +18 26 41.7 21.0   704 – Lincoln Laboratory ETS, New Mexico MPS 138364
2003 12 27.39163 08 59 56.61 +18 26 45.7 20.6   704 – Lincoln Laboratory ETS, New Mexico MPS 138364
2004 01 16.31753 08 47 35.40 +20 27 10.1 19.7   644 – Palomar Mountain/NEAT MPS 109953
2004 01 16.32294 08 47 35.13 +20 27 12.3 19.8   644 – Palomar Mountain/NEAT MPS 109953
2004 01 16.34074 08 47 34.25 +20 27 19.3 19.9   644 – Palomar Mountain/NEAT MPS 109953
2004 01 16.34851 08 47 33.87 +20 27 22.3 19.9   644 – Palomar Mountain/NEAT MPS 109953
2004 01 16.36862 08 47 32.88 +20 27 30.7 19.5   644 – Palomar Mountain/NEAT MPS 109953
2004 01 16.36992 08 47 32.81 +20 27 30.7 19.9   644 – Palomar Mountain/NEAT MPS 109953
2004 01 22.29283 08 42 40.27 +21 06 31.2 19.6   704 – Lincoln Laboratory ETS, New Mexico MPS 109953
2004 01 22.30572 08 42 39.63 +21 06 37.0 19.9   704 – Lincoln Laboratory ETS, New Mexico MPS 109953
2004 01 22.31862 08 42 38.90 +21 06 41.7 19.4   704 – Lincoln Laboratory ETS, New Mexico MPS 109953
2004 01 22.33149 08 42 38.19 +21 06 47.2 20.1   704 – Lincoln Laboratory ETS, New Mexico MPS 109953
2004 01 22.34450 08 42 37.56 +21 06 51.8 19.9   704 – Lincoln Laboratory ETS, New Mexico MPS 109953
2004 01 30.29029 08 35 46.47 +21 57 50.3 19.2 C 704 – Lincoln Laboratory ETS, New Mexico MPS 294344
2004 01 30.30301 08 35 45.98 +21 57 55.5 20.3   704 – Lincoln Laboratory ETS, New Mexico MPS 138364
2004 01 30.31554 08 35 45.27 +21 57 59.4 19.8   704 – Lincoln Laboratory ETS, New Mexico MPS 138364
2004 01 30.32793 08 35 44.55 +21 58 03.7 19.8   704 – Lincoln Laboratory ETS, New Mexico MPS 138364
2004 02 14.11736 08 23 46.01 +23 20 23.6 20.6 V 691 – Steward Observatory, Kitt Peak-Spacewatch MPS 138364
2004 02 14.14484 08 23 44.78 +23 20 31.6 20.4 V 691 – Steward Observatory, Kitt Peak-Spacewatch MPS 138364
2004 02 14.17172 08 23 43.58 +23 20 39.6 20.5 V 691 – Steward Observatory, Kitt Peak-Spacewatch MPS 138364
2004 02 23.25227 08 17 56.71 +23 59 11.3 20.7 C 704 – Lincoln Laboratory ETS, New Mexico MPS 294344
2004 02 23.26367 08 17 56.25 +23 59 13.4 20.2 C 704 – Lincoln Laboratory ETS, New Mexico MPS 294344
2007 10 11.20632 00 57 32.50 -09 45 17.4 19.9 V 703 – Catalina Sky Survey MPS 268796
2007 10 11.21340 00 57 32.18 -09 45 19.8 19.6 V 703 – Catalina Sky Survey MPS 268796
2007 10 11.22050 00 57 31.75 -09 45 23.0 20.1 V 703 – Catalina Sky Survey MPS 268796
2007 10 11.22759 00 57 31.35 -09 45 24.2 19.9 V 703 – Catalina Sky Survey MPS 268796
2008 11 07.47567 08 03 42.66 +17 17 53.9 21.5 V G96 – Mt. Lemmon Survey MPS 264582
2008 11 07.48363 08 03 42.87 +17 17 53.9 21.6 V G96 – Mt. Lemmon Survey MPS 264582
2008 11 07.49167 08 03 43.09 +17 17 54.1 20.8 V G96 – Mt. Lemmon Survey MPS 264582
2008 11 07.49961 08 03 43.30 +17 17 54.0 20.9 V G96 – Mt. Lemmon Survey MPS 264582
2008 12 04.36116 08 08 04.84 +17 57 07.0 20.2 V G96 – Mt. Lemmon Survey MPS 267483
2008 12 04.37017 08 08 04.74 +17 57 08.8 20.2 V G96 – Mt. Lemmon Survey MPS 267483
2008 12 04.37917 08 08 04.59 +17 57 10.4 20.5 V G96 – Mt. Lemmon Survey MPS 267483
2008 12 04.38817 08 08 04.48 +17 57 11.7 20.4 V G96 – Mt. Lemmon Survey MPS 267483
2008 12 22.29394 08 00 38.80 +19 07 47.6 20.1 V 691 – Steward Observatory, Kitt Peak-Spacewatch MPS 269239
2008 12 22.31213 08 00 38.06 +19 07 53.0 20.1 V 691 – Steward Observatory, Kitt Peak-Spacewatch MPS 269239
2008 12 22.32773 08 00 37.47 +19 07 57.3 20.2 V G96 – Mt. Lemmon Survey MPS 269239
2008 12 22.33060 08 00 37.34 +19 07 58.2 20.0 V 691 – Steward Observatory, Kitt Peak-Spacewatch MPS 269239
2008 12 22.33078 08 00 37.36 +19 07 58.0 20.2 V G96 – Mt. Lemmon Survey MPS 269239
2008 12 22.33381 08 00 37.22 +19 07 59.0 20.1 V G96 – Mt. Lemmon Survey MPS 269239
2008 12 22.33684 08 00 37.11 +19 07 59.9 20.3 V G96 – Mt. Lemmon Survey MPS 269239
2009 01 07.30725 07 48 19.35 +20 32 47.7 19.9 V 691 – Steward Observatory, Kitt Peak-Spacewatch MPS 271750
2009 01 07.32541 07 48 18.33 +20 32 54.2 19.9 V 691 – Steward Observatory, Kitt Peak-Spacewatch MPS 271750
2009 01 07.34358 07 48 17.31 +20 33 00.3 19.9 V 691 – Steward Observatory, Kitt Peak-Spacewatch MPS 271750
2009 01 16.21854 07 40 22.15 +21 22 34.8 19.6 V G96 – Mt. Lemmon Survey MPS 276290
2009 01 16.22497 07 40 21.79 +21 22 37.2 19.5 V G96 – Mt. Lemmon Survey MPS 276290
2009 01 16.23149 07 40 21.43 +21 22 39.2 19.5 V G96 – Mt. Lemmon Survey MPS 276290
2009 01 16.23795 07 40 21.07 +21 22 41.4 19.6 V G96 – Mt. Lemmon Survey MPS 276290
2009 01 17.26201 07 39 25.80 +21 28 19.8 19.7   704 – Lincoln Laboratory ETS, New Mexico MPS 276290
2009 01 17.28678 07 39 24.54 +21 28 28.7 20.0   704 – Lincoln Laboratory ETS, New Mexico MPS 276290
2009 01 17.29904 07 39 23.76 +21 28 32.1 19.6   704 – Lincoln Laboratory ETS, New Mexico MPS 276290
2009 02 20.18944 07 17 00.02 +23 57 12.7 20.5 V G96 – Mt. Lemmon Survey MPS 277479
2009 02 20.19803 07 16 59.84 +23 57 14.2 20.6 V G96 – Mt. Lemmon Survey MPS 277479
2009 02 20.20659 07 16 59.70 +23 57 15.5 20.4 V G96 – Mt. Lemmon Survey MPS 277479
2009 02 20.21517 07 16 59.52 +23 57 17.3 20.2 V G96 – Mt. Lemmon Survey MPS 277479
2009 03 18.16887 07 18 36.32 +24 47 41.1 21.0 V G96 – Mt. Lemmon Survey MPS 281147
2009 03 18.17936 07 18 36.57 +24 47 41.8 21.0 V G96 – Mt. Lemmon Survey MPS 281147
2009 03 18.18691 07 18 36.72 +24 47 42.4 21.0 V G96 – Mt. Lemmon Survey MPS 281147
2009 03 18.19444 07 18 36.90 +24 47 42.5 21.0 V G96 – Mt. Lemmon Survey MPS 281147
2010 04 19.362915 13 28 27.439 +06 02 22.86 21.06 g F51 – Pan-STARRS 1, Haleakala MPS 338780
2010 04 19.372337 13 28 27.011 +06 02 24.61 21.19 g F51 – Pan-STARRS 1, Haleakala MPS 338780
2012 09 15.35431 00 15 58.46 -12 42 53.9 19.3 V 703 – Catalina Sky Survey MPS 433080
2012 09 15.36447 00 15 58.06 -12 42 59.3 19.2 V 703 – Catalina Sky Survey MPS 433080
2012 09 15.37461 00 15 57.70 -12 43 02.3 20.1 V 703 – Catalina Sky Survey MPS 433080
2012 09 15.38472 00 15 57.20 -12 43 06.6 20.2 V 703 – Catalina Sky Survey MPS 433080
2012 09 26.23976 00 07 55.20 -13 51 39.6 19.8 V G96 – Mt. Lemmon Survey MPS 433949
2012 09 26.24490 00 07 54.94 -13 51 41.4 19.8 V G96 – Mt. Lemmon Survey MPS 433949
2012 09 26.25002 00 07 54.69 -13 51 42.7 19.9 V G96 – Mt. Lemmon Survey MPS 433949
2012 09 26.25513 00 07 54.44 -13 51 44.6 19.5 V G96 – Mt. Lemmon Survey MPS 433949
2012 09 26.408006 00 07 47.547 -13 52 35.35 19.9 r F51 – Pan-STARRS 1, Haleakala MPS 433949
2012 09 26.418960 00 07 47.037 -13 52 38.89 19.6 r F51 – Pan-STARRS 1, Haleakala MPS 433949
2012 11 01.319077 23 47 41.977 -15 10 05.66 20.4 r F51 – Pan-STARRS 1, Haleakala MPS 441240
2012 11 01.330975 23 47 41.792 -15 10 04.58 20.3 r F51 – Pan-STARRS 1, Haleakala MPS 441240
2012 11 01.344657 23 47 41.570 -15 10 03.45 20.1 i F51 – Pan-STARRS 1, Haleakala MPS 441240
2013 01 08.21881 00 18 57.539 -08 09 00.01 21.3 w F51 – Pan-STARRS 1, Haleakala MPS 450682
2013 01 08.22278 00 18 57.771 -08 08 58.03 21.3 w F51 – Pan-STARRS 1, Haleakala MPS 450682
2013 01 08.22673 00 18 57.996 -08 08 55.49 21.3 w F51 – Pan-STARRS 1, Haleakala MPS 450682
2013 01 08.23067 00 18 58.244 -08 08 53.43 21.3 w F51 – Pan-STARRS 1, Haleakala MPS 450682
2013 12 11.55814 07 04 24.002 +18 02 05.31 19.9 w F51 – Pan-STARRS 1, Haleakala MPS 491809
2013 12 11.57324 07 04 23.357 +18 02 08.36 20.0 w F51 – Pan-STARRS 1, Haleakala MPS 491809
2013 12 11.58839 07 04 22.706 +18 02 11.46 19.9 w F51 – Pan-STARRS 1, Haleakala MPS 491809
